This is the latest recevied weather packets stored in our database for station/object WW3TRG. If no packets are shown the sender has not sent any weather packets the latest 10 day(s).
| Time | Temp. | Humidity | Pressure | Rain* | Wind** | Luminosity | Snow |
|---|---|---|---|---|---|---|---|
| 1788567866 | 22.22° C | 82% | 1011 hPa | 0 mm | - | 0 W/m² | - |
| 1788567566 | 22.22° C | 82% | 1011.1 hPa | 0 mm | - | 0 W/m² | - |
| 1788567264 | 22.22° C | 82% | 1011 hPa | 0 mm | - | 0 W/m² | - |
| 1788566955 | 22.22° C | 82% | 1011 hPa | 0 mm | - | 0 W/m² | - |
| 1788566651 | 22.22° C | 82% | 1011.1 hPa | 0 mm | - | 0 W/m² | - |
| 1788566347 | 22.22° C | 82% | 1011.1 hPa | 0 mm | - | 0 W/m² | - |
| 1788566043 | 22.22° C | 82% | 1010.8 hPa | 0 mm | - | 0 W/m² | - |
| 1788565742 | 22.22° C | 82% | 1011.2 hPa | 0 mm | - | 0 W/m² | - |
| 1788565436 | 22.78° C | 82% | 1010.9 hPa | 0 mm | - | 0 W/m² | - |
| 1788565132 | 22.78° C | 82% | 1011.2 hPa | 0 mm | - | 0 W/m² | - |
| 1788564828 | 22.22° C | 82% | 1010.8 hPa | 0 mm | - | 0 W/m² | - |
| 1788564524 | 22.78° C | 82% | 1011 hPa | 0 mm | - | 0 W/m² | - |
| 1788564221 | 22.78° C | 82% | 1011.1 hPa | 0 mm | - | 0 W/m² | - |
| 1788563916 | 22.78° C | 82% | 1010.8 hPa | 0 mm | - | 0 W/m² | - |
| 1788563611 | 23.33° C | 82% | 1010.6 hPa | 0 mm | - | 0 W/m² | - |
| 1788563306 | 23.33° C | 82% | 1010.6 hPa | 0 mm | - | 1 W/m² | - |
| 1788563005 | 23.89° C | 82% | 1010.5 hPa | 0 mm | - | 4 W/m² | - |
| 1788562700 | 23.89° C | 81% | 1010.7 hPa | 0 mm | - | 5 W/m² | - |
| 1788562398 | 24.44° C | 81% | 1010.7 hPa | 0 mm | - | 5 W/m² | - |
| 1788562092 | 24.44° C | 80% | 1010.8 hPa | 0 mm | - | 11 W/m² | - |
| 1788561788 | 24.44° C | 80% | 1010.8 hPa | 0 mm | - | 15 W/m² | - |
| 1788561487 | 25° C | 79% | 1010.9 hPa | 0 mm | - | 13 W/m² | - |
| 1788561182 | 25° C | 79% | 1010.9 hPa | 0 mm | - | 20 W/m² | - |
| 1788560878 | 25° C | 78% | 1011 hPa | 0 mm | - | 21 W/m² | - |
| 1788560573 | 25° C | 78% | 1010.9 hPa | 0 mm | - | 21 W/m² | - |
* Rain latest hour (hover to see other rain measurements)
** Current wind speed in m/s (hover to see current wind gust speed)